Lid_Strength_Index
-2 -2 -2 -2 -2 -2 -1 -1 -1 -1 -1 -1 -1 -1 -1 -1 -1 -1 -1 -1 -1 -1 -1 -1 -1 -1 -1 -1 -1 -1 -1 -1 -1
-2 -2 -2 -2 -2 -2 -2 -2 -2 -1 -1 -1 -1 -1 -1 -1 -1 -1 -1 -1 -1 -1 -1 -1 -1 -1 -1 -1 -1 -1 -1 -1 -1
-2 -2 -2 -2 -2 -2 -2 -2 -2 -1 -1 -1 -1 -1 -1 -1 -1 -1 -1 -1 -1 -1 -1 -1 -1 -1 -1 -1 -1 -1 -1 -1 -1
-2 -2 -2 -2 -2 -2 -2 -2 -2 -2 -1 -1 -1 -1 -1 -1 -1 -1 -1 -1 -1 -1 -1 -1 -1 -1 -1 -1 -1 -1 -1 -1 -1
-2 -2 -2 -2 -2 -2 -2 -1 -2 -2 -1 1 1 1 -1 -1 -1 -1 -1 -1 -1 -1 -1 -1 -1 -1 -1 -1 -1 -1 -1 -1 -1
-1 -1 -1 -1 -0 -0 -0 0 1 1 -0 1 2 1 -0 -2 -1 -1 -1 -1 -2 -2 -2 -1 -1 -1 -1 -1 -1 -1 -1 -1 -1
0 0 1 1 1 2 2 2 3 2 1 1 0 -0 -0 -1 -1 -1 -1 -1 -1 -1 -1 -1 -1 -2 -2 -1 -1 -1 -1 -1 -1
3 2 3 3 4 4 4 4 4 3 3 3 3 2 1 -0 -0 1 1 1 0 -0 -0 -0 -0 -1 -1 -2 -1 -1 -1 -1 -1
4 3 4 3 4 4 4 5 5 4 4 5 5 4 3 2 1 2 2 1 1 1 1 1 1 1 0 -0 -1 -1 -1 -2 -2
4 4 4 4 4 4 5 5 5 5 6 6 5 5 5 5 4 3 4 3 2 1 0 1 2 2 1 0 0 -0 -0 -1 -2
4 4 4 4 4 4 4 5 5 5 5 6 6 5 5 5 5 4 4 5 4 2 2 1 1 2 2 1 1 1 0 -0 -1
4 4 4 4 4 5 4 5 5 5 5 6 5 5 5 5 6 5 5 4 5 5 3 3 2 2 1 1 2 2 2 1 0
4 4 4 4 4 4 5 5 5 5 5 5 5 5 5 6 6 5 5 5 5 6 5 4 3 3 2 2 1 1 3 3 1
3 4 4 4 4 5 5 5 5 5 5 6 6 6 6 6 6 6 6 5 5 5 6 5 5 4 3 2 2 2 1 1 3
4 4 4 4 4 5 5 6 5 5 6 7 7 6 6 5 6 6 6 6 6 5 5 5 5 5 4 3 3 2 2 2 1
4 4 4 4 5 5 5 5 6 6 6 7 7 6 6 7 6 6 6 6 6 6 6 5 5 5 5 5 4 2 2 2 1
4 4 5 4 5 5 5 5 6 6 6 8 8 8 8 6 7 6 6 7 6 6 6 6 6 5 5 5 5 5 3 2 1
5 5 5 5 5 5 5 5 6 7 7 7 8 9 9 9 7 7 7 7 7 6 6 6 6 6 6 5 5 5 4 3 2
5 5 5 5 5 5 5 6 6 7 8 7 8 7 8 10 10 7 8 7 7 7 6 6 6 6 6 5 5 5 4 3 2
5 5 5 5 5 5 6 6 6 7 8 8 8 8 8 8 10 11 9 8 7 7 7 7 6 6 5 5 5 4 4 3 3